Location: Cosy Dell
(34.2789°N, 117.4537°W)
Time: 20:14:15
(UTC+00:00)

SL-08 R/B - Pass Details

Date: 14 July 2020
Orbit: 674 x 739 km, 98.4° (Epoch: 13 August)

Event Time Altitude Azimuth Distance (km) Brightness Sun altitude
Exits shadow 11:16:08 27° 207° (SSW) 1,328 4.2 -16.6°
Maximum altitude 11:18:14 43° 261° (W) 983 3.7 -16.3°
Drops below altitude 10° 11:22:49 10° 333° (NNW) 2,196 6.0 -15.6°
Sets 11:25:13 0° 340° (NNW) 3,130 6.9 -15.2°
